Cloud_Cover
32 36 44 48 44 36 36 36 44 48 48 44 48 48 48 48 56 64 64 64 64 64 64 64 68 68 68 64 56 56 48 44 36 36 32 20 20 20 20 20 36 48 56 44 44 44 32 20 12 12 8 8 8 0 0 0 0 0 0 0 0 0 0 0 12 20 20 20 20
20 24 24 20 20 24 24 32 32 36 44 44 36 36 44 44 44 44 44 44 48 48 48 48 56 56 56 48 44 36 36 32 24 24 24 20 20 12 20 20 32 36 32 32 24 20 12 12 8 8 8 8 0 0 0 0 0 0 0 0 0 0 8 12 12 12 12 12 8
20 12 12 12 12 20 20 24 32 32 36 36 36 36 36 32 36 36 36 36 44 44 44 44 48 48 48 44 36 32 20 20 20 20 12 12 12 12 12 12 12 12 12 12 8 8 8 8 8 8 8 8 0 0 0 0 0 0 0 0 0 8 8 8 8 8 8 0 0
12 12 20 20 20 20 20 24 24 24 32 32 32 32 32 32 32 32 32 32 32 32 32 32 32 32 32 32 24 20 12 12 8 8 8 8 8 8 8 8 8 8 8 8 8 8 8 8 8 8 8 8 0 0 0 0 0 0 0 8 8 8 8 0 0 0 0 0 0
20 20 12 20 20 20 20 20 20 24 24 24 24 24 24 24 32 32 32 32 24 24 24 24 24 24 20 12 12 8 0 0 0 0 0 0 0 0 0 0 0 0 0 8 8 8 8 8 8 8 0 0 0 0 0 0 0 0 8 8 8 8 8 8 0 0 0 0 20
20 20 20 20 20 20 20 20 20 20 20 20 20 20 20 24 24 24 24 24 24 24 20 20 20 12 8 8 0 0 0 0 0 0 0 0 0 0 0 0 0 0 8 8 8 8 8 0 8 0 0 0 0 0 0 0 0 8 12 8 8 8 0 0 0 0 0 12 24
20 20 20 20 20 20 20 20 12 12 12 12 12 12 12 12 12 20 20 20 20 12 12 12 0 0 0 0 0 0 0 0 0 0 0 0 0 0 8 8 8 8 8 8 8 0 8 0 0 0 0 0 0 0 0 0 8 8 8 8 0 0 0 0 0 0 8 32 48
12 12 20 20 12 12 12 12 12 8 8 8 8 8 8 8 12 12 12 12 8 8 0 0 0 0 0 0 0 0 0 0 0 0 0 0 0 8 8 8 8 0 0 0 0 0 8 8 0 0 0 0 0 0 8 8 8 8 8 0 0 0 0 8 8 8 8 24 36
8 8 8 8 8 8 8 8 8 8 8 8 8 8 8 8 8 8 0 0 0 0 0 0 0 0 0 0 0 0 0 0 0 0 0 0 0 0 0 0 0 0 0 0 0 0 0 0 0 0 0 0 8 8 8 8 8 8 0 0 0 8 12 20 12 12 12 12 32
0 8 0 0 0 0 0 8 0 0 0 0 0 0 0 0 0 0 0 0 0 0 0 0 0 0 0 0 0 0 0 0 0 0 0 0 0 0 0 0 0 0 0 0 0 0 0 0 8 8 8 8 8 8 8 8 0 0 0 0 8 20 24 24 24 20 24 32 44
0 0 0 0 0 0 0 0 0 0 0 0 0 0 0 0 0 0 0 0 0 0 0 0 0 0 0 0 0 0 0 0 0 0 0 0 0 0 0 0 0 0 0 0 0 8 8 8 8 8 8 8 8 8 0 0 0 0 8 12 20 24 32 36 36 36 36 56 56
0 0 0 0 0 0 0 0 0 0 0 0 0 0 0 0 0 0 0 0 0 0 0 0 0 0 0 0 0 0 0 0 0 0 0 0 0 0 0 0 0 0 0 0 0 0 8 0 0 0 0 0 0 0 0 0 0 12 20 24 24 32 36 48 48 48 56 56 48
0 0 0 0 0 0 0 0 0 0 0 0 0 0 0 0 0 0 0 0 0 0 0 0 0 0 0 0 0 0 0 0 0 0 0 0 0 0 0 0 0 0 0 8 8 8 8 0 0 0 0 0 0 0 0 0 0 12 24 32 36 44 44 48 56 56 56 48 44
0 0 0 0 8 8 0 0 0 0 0 0 0 0 0 0 0 0 0 0 0 0 0 0 0 0 0 0 0 0 0 0 0 0 0 0 0 0 0 0 0 8 8 8 8 8 8 0 0 0 8 0 0 0 0 0 0 12 36 48 56 64 64 64 64 64 64 48 48
12 8 8 8 20 32 36 32 24 12 0 0 0 0 0 0 0 0 0 0 0 0 0 0 0 0 0 0 0 0 0 0 0 0 0 0 0 0 0 0 8 8 8 8 0 0 0 0 8 8 8 0 0 8 8 8 8 24 44 68 76 76 76 76 76 80 80 76 68
64 48 36 36 36 48 68 68 64 44 24 20 12 8 8 8 0 8 8 12 12 8 8 0 0 0 0 0 0 0 0 0 0 0 0 0 0 0 0 0 8 0 0 0 0 0 8 8 8 0 0 0 0 12 24 24 36 44 56 68 76 80 80 80 88 88 88 88 88
92 88 80 76 76 76 68 56 44 44 44 36 24 12 12 20 20 32 44 56 56 48 44 32 24 20 12 12 12 8 8 8 0 0 0 0 0 0 0 0 0 0 0 0 8 8 8 8 12 20 20 24 24 36 48 48 68 68 68 76 76 80 88 88 92 92 92 92 92
80 88 88 92 88 92 92 76 68 48 36 36 32 24 32 56 64 76 80 88 92 92 88 80 76 64 48 32 24 20 12 12 8 0 0 0 0 0 0 0 0 8 12 12 32 36 36 44 48 64 68 76 76 80 88 88 92 92 88 88 88 92 92 92 92 92 92 92 92
44 48 64 68 64 68 76 80 92 88 76 76 68 68 76 88 92 92 92 92 92 92 92 92 88 76 56 36 24 24 20 20 12 8 0 0 0 8 8 8 24 44 48 56 76 80 80 88 88 88 88 92 92 92 92 92 92 92 92 92 92 92 92 92 92 92 92 92 92
20 20 24 32 32 32 36 36 56 80 92 92 88 92 92 92 92 92 92 92 92 92 88 76 68 64 56 48 44 36 32 24 12 12 12 24 32 24 24 44 68 80 80 88 92 92 88 88 88 88 92 92 92 88 88 92 92 92 92 92 92 92 92 92 92 92 92 92 92
8 0 8 8 8 8 8 8 12 56 92 92 92 92 92 92 92 92 92 92 92 88 76 64 64 64 56 48 48 48 48 44 44 44 44 44 64 56 48 64 76 76 76 76 76 76 76 68 68 76 80 80 80 88 88 88 92 92 92 92 92 92 92 92 92 92 92 92 92
0 0 0 0 0 0 8 12 20 44 68 76 80 88 88 88 88 92 92 92 88 76 68 64 76 76 68 64 64 64 64 56 56 68 80 80 88 88 76 64 68 68 64 56 56 56 48 48 56 64 68 76 88 92 92 92 92 92 92 92 92 92 92 92 92 92 92 100 92
0 0 0 0 0 0 0 0 8 12 24 36 48 48 56 64 68 76 80 92 92 88 80 76 76 76 80 88 88 88 88 88 88 88 92 92 92 92 88 56 56 64 64 56 48 44 36 36 56 68 76 92 92 92 92 92 92 92 92 92 92 92 92 92 92 92 92 92 92
0 0 0 0 0 0 0 0 0 0 0 8 12 12 12 12 20 24 44 68 76 68 68 68 88 92 92 92 92 92 92 80 92 92 92 92 92 92 88 64 56 56 48 44 44 44 36 36 56 76 88 92 92 92 92 92 92 92 92 92 92 92 92 92 92 92 92 92 92
0 0 0 0 0 0 0 0 0 0 0 0 0 0 0 8 0 0 12 24 36 36 36 36 44 68 92 92 92 92 88 68 88 92 92 92 92 92 92 92 76 64 48 44 56 64 68 68 76 88 92 92 92 92 92 92 92 92 92 92 92 92 92 92 92 92 92 92 92
0 0 0 0 0 0 0 0 0 0 0 0 0 0 0 0 0 0 0 8 8 12 12 0 0 24 64 88 92 88 88 76 64 76 92 92 92 92 92 92 92 92 88 80 88 88 88 80 88 92 92 92 92 92 92 92 92 92 92 92 92 92 92 88 92 92 92 92 92
0 0 0 0 0 0 0 0 0 0 0 0 8 0 0 0 0 0 0 12 8 12 12 8 0 0 12 44 68 76 80 88 76 68 76 92 92 92 92 92 92 92 92 92 92 92 92 92 92 92 92 92 92 92 92 92 92 92 92 92 92 92 92 92 92 92 92 92 92
0 0 0 0 0 0 0 0 0 0 0 0 0 0 0 0 0 32 64 48 32 20 20 20 24 24 20 0 44 64 80 92 88 88 92 92 92 92 92 92 92 92 92 92 92 92 92 92 92 92 92 92 92 92 92 92 92 92 92 92 92 92 92 88 88 92 92 88 92
0 0 0 0 0 0 0 0 0 0 0 0 0 0 0 0 0 32 68 80 64 44 24 20 32 36 36 24 36 56 76 92 92 92 92 92 92 92 92 92 92 92 92 92 92 92 92 92 92 92 92 92 92 92 92 92 92 92 92 92 92 92 92 88 88 80 88 92 92
0 0 0 0 0 0 0 0 0 0 0 0 0 0 0 0 0 0 20 64 68 64 56 56 48 44 36 36 44 56 68 68 88 92 92 92 92 92 92 92 92 92 92 92 92 92 92 92 92 92 92 92 92 92 92 92 92 92 92 88 80 76 76 80 76 76 80 80 92
0 0 0 0 0 0 0 0 0 0 0 0 0 0 0 0 0 0 8 8 12 20 24 24 20 20 24 44 44 68 92 92 92 92 92 92 92 92 92 88 92 92 92 92 92 92 92 92 92 92 92 92 92 92 92 92 92 88 80 80 76 68 68 68 68 76 80 92 92
0 0 0 0 0 0 0 0 0 0 0 0 0 0 0 0 0 0 0 0 0 0 0 0 0 12 24 44 64 80 92 92 92 92 92 92 92 92 92 92 88 92 92 92 92 92 92 92 92 92 92 92 92 92 92 92 92 92 92 92 80 80 80 80 80 88 88 92 92
0 0 0 0 0 0 0 0 0 0 0 0 0 0 0 0 0 0 0 0 0 0 0 0 0 8 12 32 44 68 80 92 92 92 92 92 92 92 92 92 92 92 92 92 92 92 92 92 92 92 92 92 92 92 92 92 92 92 92 92 92 92 92 92 92 92 92 92 92
0 0 0 0 0 0 0 0 0 0 0 0 0 0 0 0 0 0 0 0 0 0 12 20 12 8 0 8 20 32 48 68 76 88 92 92 92 92 92 92 92 92 92 92 92 92 92 92 92 92 92 92 92 92 92 92 92 92 92 92 92 92 92 92 92 92 92 92 92
0 0 0 0 0 0 0 0 0 0 0 0 0 0 0 0 0 0 0 0 0 8 12 8 0 0 0 0 0 12 20 24 20 56 92 92 92 92 92 92 92 92 92 92 92 92 92 92 92 92 92 92 92 92 92 92 92 92 92 92 92 92 92 92 88 88 92 92 88
0 0 0 0 0 0 0 0 0 0 0 0 0 0 0 0 0 0 0 0 0 8 8 0 0 0 0 0 0 8 20 36 56 76 92 92 92 92 92 92 92 92 92 92 92 92 92 92 92 92 92 92 92 92 92 92 92 92 92 92 92 92 92 88 76 88 88 68 68
0 0 0 0 0 0 0 0 0 0 0 0 0 0 0 0 0 0 0 0 8 8 8 0 0 0 0 0 0 8 24 64 80 88 92 92 92 92 92 92 92 92 92 92 92 92 92 92 92 92 92 92 92 92 92 92 92 92 92 92 92 88 76 68 68 76 76 56 56
0 0 0 0 0 0 0 0 0 0 0 0 0 0 0 0 0 0 0 8 8 12 12 8 8 8 12 12 20 20 44 92 92 88 80 92 92 92 92 92 92 92 92 92 92 92 92 92 92 92 92 92 92 92 92 92 92 92 92 92 92 80 76 68 64 64 64 48 48
0 0 0 0 0 0 0 0 0 0 0 0 0 0 0 0 0 0 8 8 12 20 24 32 24 24 32 36 44 48 64 92 92 92 88 92 92 92 92 92 92 92 88 80 92 92 92 92 92 92 92 92 92 92 92 92 92 92 92 92 92 88 76 68 68 68 68 56 48
0 0 0 0 8 8 0 0 0 0 0 0 0 0 0 0 0 0 8 8 20 32 44 44 44 48 64 64 76 80 88 92 92 92 92 92 92 92 92 92 92 92 88 88 92 92 92 92 92 92 92 92 92 92 92 92 92 92 92 92 92 88 80 76 76 76 64 48 44
0 0 8 8 8 8 0 0 0 0 0 0 0 0 0 8 8 8 8 8 20 24 32 36 36 64 88 88 80 88 88 88 92 92 92 92 92 92 92 92 92 92 92 92 92 92 92 92 92 92 92 92 92 92 92 92 92 92 92 92 92 88 80 88 80 76 68 68 68